Terminal Aerodrome Forecast
Issued by NWS

Home | Current Version | Previous Version | Text Only | Print | Product List | Glossary On
Versions: 1 2 3 4 5 6 7 8 9 10 11 12 13 14 15 16 17 18 19 20
000
FTUS44 KTSA 251300 AAA
TAFBVO
TAF AMD
KBVO 251302Z 2513/2612 00000KT 1/4SM FG VV001
     FM251400 00000KT 2SM BR SCT001
      TEMPO 2514/2515 1/2SM FG VV001
     FM251500 18005KT P6SM SKC=

USA.gov is the U.S. government's official web portal to all federal, state and local government web resources and services.